[[{"header":{"parameterUnit":"m.s-1","parameterCategory":1,"la1":30.2991,"la2":30.254,"lo1":-89.0895,"lo2":-89.0444,"dy":0.0017,"dx":0.0017,"nx":28,"ny":28,"refTime":"2025-03-12T03:00:00:Z","depth":0,"parameterNumber":2,"parameterNumberName":"U-component_of_WINDS"},"data":[0,0,0,0,0,0,0,0,0,0,0,0,0,0,0,0,0,0,0,0,0,0,0,0,0,0,0,0,0,0,0,0,0,0,0,0,0,0,0,0,0,0,0,0,0,0,0,0,0,0,0,0,0,0,0,0,0,0,-0.3116,-0.3116,0,-0.3031,-0.303,-0.3029,-0.2963,-0.2962,-0.2961,-0.2961,-0.2867,-0.2865,-0.2863,0,0,0,0,0,0,0,0,0,0,0,0,0,-0.3215,-0.3214,-0.3117,-0.3115,-0.3114,-0.3032,-0.303,-0.3029,-0.2963,-0.2962,-0.2961,-0.2961,-0.2868,-0.2865,-0.2863,0,0,0,0,0,0,0,0,0,0,0,0,0,-0.3155,-0.3213,-0.3117,-0.3072,-0.3067,-0.3032,-0.303,-0.3029,-0.2963,-0.2962,-0.2961,-0.296,-0.2868,-0.2866,-0.2863,-0.2864,0,0,-0.2854,-0.2853,0,0,0,0,0,0,0,0,-0.3159,-0.3152,-0.3079,-0.3075,-0.3069,-0.3007,-0.3031,-0.2973,-0.2963,-0.3002,-0.2961,-0.296,-0.2914,-0.2907,-0.2893,-0.286,-0.2856,-0.2854,-0.2852,-0.2851,-0.285,0,0,0,0,0,0,0,-0.3163,-0.3155,-0.3083,-0.3078,-0.3072,-0.3053,-0.3044,-0.3019,-0.2964,-0.2999,-0.2994,-0.2985,-0.2911,-0.2896,-0.289,-0.2854,-0.2854,-0.2851,-0.285,-0.2848,-0.2816,-0.2816,0,0,0,0,0,0,-0.3175,-0.3159,-0.3085,-0.308,-0.3113,-0.3052,-0.3042,-0.3028,-0.2964,-0.2954,-0.2986,-0.2982,-0.2901,-0.2894,-0.2887,-0.2883,-0.2851,-0.2848,-0.2847,-0.2815,-0.2816,-0.2817,0,0,0,0,0,0,-0.3178,-0.3169,-0.3089,-0.3118,-0.3107,-0.3052,-0.3036,-0.3026,-0.3012,-0.2955,-0.2944,-0.2981,-0.29,-0.2891,-0.287,-0.2879,-0.2847,-0.2844,-0.2814,-0.2815,-0.2816,-0.2877,0,0,0,0,0,0,-0.3181,-0.3171,-0.3172,-0.3119,-0.3105,-0.3076,-0.3037,-0.3025,-0.3008,-0.3002,-0.2947,-0.2937,-0.2899,-0.2875,-0.2868,-0.2874,-0.2842,-0.2813,-0.2814,-0.2816,-0.2874,-0.288,-0.2885,0,0,0,0,0,-0.3184,-0.3191,-0.3172,-0.3164,-0.3106,-0.3077,-0.3069,-0.3026,-0.3009,-0.3009,-0.2972,-0.2939,-0.288,-0.2874,-0.2864,-0.2871,-0.2812,-0.2814,-0.2816,-0.2871,-0.2879,-0.2885,0,0,0,0,0,0,-0.3245,-0.3183,-0.3162,-0.3152,-0.312,-0.3066,-0.3064,-0.3036,-0.3006,-0.3002,-0.2948,-0.2937,-0.2922,-0.2894,-0.2888,-0.2868,-0.2841,-0.2842,-0.2887,-0.2893,-0.2899,-0.2905,-0.284,0,0,0,0,0,-0.3257,-0.3241,-0.3187,-0.3183,-0.3169,-0.312,-0.3105,-0.3075,-0.3039,-0.3025,-0.2986,-0.2951,-0.2924,-0.2907,-0.2879,-0.2869,-0.2855,-0.2869,-0.2875,-0.288,-0.288,-0.2872,-0.2877,-0.2823,-0.2823,-0.2823,0,0,-0.3282,-0.3247,-0.3239,-0.3194,-0.3166,-0.3148,-0.3108,-0.3091,-0.3076,-0.3021,-0.3,-0.2971,-0.2927,-0.2912,-0.2903,-0.2888,-0.2892,-0.2882,-0.2887,-0.2884,-0.2874,-0.2879,-0.2884,-0.2824,-0.2824,-0.2824,0,0,-0.3318,-0.3291,-0.3284,-0.3257,-0.3216,-0.3183,-0.3182,-0.3131,-0.311,-0.3088,-0.3047,-0.3027,-0.2982,-0.2953,-0.2932,-0.2957,-0.2925,-0.2949,-0.2979,-0.2971,-0.2975,-0.2979,-0.2986,-0.299,-0.295,-0.295,-0.295,0,-0.3354,-0.3327,-0.3284,-0.3269,-0.325,-0.3202,-0.3194,-0.3169,-0.3119,-0.3106,-0.3091,-0.3034,-0.3001,-0.2978,-0.2984,-0.2969,-0.2964,-0.2955,-0.2979,-0.2981,-0.2984,-0.2991,-0.2994,-0.2953,-0.2953,-0.2952,-0.2952,0,-0.3372,-0.3354,-0.3353,-0.3309,-0.329,-0.3279,-0.3232,-0.3217,-0.3189,-0.3157,-0.3135,-0.3094,-0.3057,-0.3049,-0.302,-0.3021,-0.3013,-0.2989,-0.2961,-0.2993,-0.2998,-0.3,-0.2957,-0.2956,-0.2955,-0.2955,0,0,-0.3443,-0.3377,-0.3377,-0.3356,-0.3307,-0.3291,-0.3276,-0.3242,-0.323,-0.3197,-0.3182,-0.3145,-0.3123,-0.3099,-0.3067,-0.306,-0.3081,-0.3036,-0.3034,-0.3045,-0.3077,-0.3095,-0.3099,-0.306,-0.306,-0.3061,-0.3081,0,-0.3471,-0.3445,-0.3406,-0.3391,-0.3373,-0.3327,-0.3314,-0.3281,-0.3251,-0.3229,-0.3194,-0.3169,-0.3141,-0.3127,-0.3118,-0.308,-0.3086,-0.3078,-0.3043,-0.3043,-0.3055,-0.3102,-0.3121,-0.3142,-0.3083,-0.3083,-0.3083,0,-0.35,-0.3472,-0.3457,-0.3409,-0.3399,-0.3389,-0.3354,-0.3334,-0.3295,-0.3273,-0.3247,-0.3213,-0.3192,-0.3168,-0.3138,-0.3134,-0.3117,-0.3096,-0.3096,-0.309,-0.3064,-0.3096,-0.3148,-0.3151,-0.3086,-0.3086,-0.3086,0,-0.3552,-0.3511,-0.3496,-0.348,-0.3423,-0.3417,-0.3392,-0.3353,-0.3335,-0.3303,-0.329,-0.3256,-0.3237,-0.321,-0.3166,-0.3153,-0.314,-0.3113,-0.312,-0.3121,-0.3118,-0.3119,-0.3167,-0.311,-0.311,-0.311,-0.311,0,-0.3586,-0.3579,-0.3519,-0.351,-0.3499,-0.3453,-0.3443,-0.3414,-0.3379,-0.3361,-0.3318,-0.3303,-0.3246,-0.3223,-0.3188,-0.3168,-0.3159,-0.3139,-0.313,-0.3143,-0.3145,-0.313,-0.3127,-0.311,-0.311,-0.311,-0.311,0,-0.3643,-0.3603,-0.3584,-0.3533,-0.3519,-0.3513,-0.3468,-0.3456,-0.3424,-0.3402,-0.3394,-0.3343,-0.3313,-0.3267,-0.3223,-0.3199,-0.3184,-0.3169,-0.3198,-0.3192,-0.3201,-0.3201,-0.324,-0.3243,-0.3186,-0.3186,-0.3187,0,-0.3667,-0.366,-0.3609,-0.3596,-0.3573,-0.3552,-0.3533,-0.3487,-0.3469,-0.3424,-0.3417,-0.3385,-0.3356,-0.3311,-0.3267,-0.3233,-0.3216,-0.3232,-0.3211,-0.3223,-0.3215,-0.3216,-0.3214,-0.3237,-0.3238,-0.3239,-0.3239,0,-0.3714,-0.3695,-0.3671,-0.364,-0.362,-0.3593,-0.3563,-0.3554,-0.3501,-0.3482,-0.3453,-0.3431,-0.3387,-0.3354,-0.3314,-0.3286,-0.3253,-0.3247,-0.3246,-0.3259,-0.3275,-0.3265,-0.3211,-0.3246,-0.3245,-0.3245,-0.3244,-0.3244,-0.3754,-0.3746,-0.3708,-0.3683,-0.3656,-0.363,-0.3616,-0.3583,-0.3558,-0.352,-0.3494,-0.3465,-0.3425,-0.3368,-0.3341,-0.3317,-0.3302,-0.3302,-0.3302,-0.3302,-0.3306,-0.3281,-0.3309,-0.3309,-0.3309,-0.3309,-0.3308,0,-0.3798,-0.3772,-0.3749,-0.371,-0.369,-0.3664,-0.3629,-0.3613,-0.359,-0.3556,-0.3529,-0.3494,-0.3462,-0.3417,-0.3381,-0.337,-0.3354,-0.3362,-0.3361,-0.3355,-0.3322,-0.3325,-0.3376,-0.3376,-0.3376,-0.3376,-0.3376,-0.3376,-0.3818,-0.3802,-0.3779,-0.3748,-0.3721,-0.3695,-0.3677,-0.3652,-0.3625,-0.3589,-0.3563,-0.3534,-0.3495,-0.3456,-0.3424,-0.3412,-0.34,-0.3412,-0.3395,-0.3364,-0.3358,-0.3352,-0.3355,-0.3411,-0.3411,-0.343,-0.343,-0.343]},{"header":{"parameterUnit":"m.s-1","parameterCategory":1,"la1":30.2991,"la2":30.254,"lo1":-89.0895,"lo2":-89.0444,"dy":0.0017,"dx":0.0017,"nx":28,"ny":28,"refTime":"2025-03-12T03:00:00:Z","depth":0,"parameterNumber":3,"parameterNumberName":"V-component_of_WINDS"},"data":[0,0,0,0,0,0,0,0,0,0,0,0,0,0,0,0,0,0,0,0,0,0,0,0,0,0,0,0,0,0,0,0,0,0,0,0,0,0,0,0,0,0,0,0,0,0,0,0,0,0,0,0,0,0,0,0,0,0,2.5459,2.5459,0,2.5454,2.5454,2.5454,2.5465,2.5465,2.5465,2.5466,2.5457,2.5456,2.5455,0,0,0,0,0,0,0,0,0,0,0,0,0,2.5477,2.5477,2.5459,2.5459,2.5459,2.5454,2.5454,2.5453,2.5465,2.5465,2.5465,2.5466,2.5457,2.5456,2.5455,0,0,0,0,0,0,0,0,0,0,0,0,0,2.547,2.5477,2.5459,2.5464,2.5464,2.5454,2.5454,2.5453,2.5464,2.5465,2.5466,2.5466,2.5457,2.5456,2.5455,2.5438,0,0,2.5453,2.5452,0,0,0,0,0,0,0,0,2.547,2.5469,2.5463,2.5464,2.5464,2.5461,2.5457,2.5448,2.5464,2.5464,2.5466,2.5466,2.5457,2.5456,2.5454,2.5438,2.5438,2.5452,2.5452,2.5452,2.5451,0,0,0,0,0,0,0,2.5471,2.547,2.5457,2.5463,2.5464,2.5466,2.5465,2.5455,2.5457,2.5464,2.5465,2.5465,2.5457,2.5455,2.5454,2.5438,2.5452,2.5452,2.5451,2.5451,2.541,2.5409,0,0,0,0,0,0,2.5471,2.547,2.5457,2.5457,2.5469,2.5465,2.5465,2.5461,2.5458,2.5458,2.5464,2.5465,2.5456,2.5455,2.5453,2.5435,2.5452,2.5451,2.545,2.541,2.541,2.5409,0,0,0,0,0,0,2.5472,2.547,2.5457,2.5464,2.5462,2.5464,2.546,2.5461,2.5458,2.5458,2.5458,2.5461,2.5456,2.5455,2.5443,2.5435,2.545,2.5449,2.5411,2.541,2.5409,2.5397,0,0,0,0,0,0,2.5472,2.547,2.5464,2.5463,2.5462,2.5447,2.5459,2.546,2.5457,2.5458,2.5455,2.5455,2.5457,2.5444,2.5442,2.5434,2.5449,2.5412,2.5411,2.541,2.5399,2.5396,2.5394,0,0,0,0,0,2.5473,2.546,2.5464,2.5462,2.5455,2.5447,2.5446,2.5449,2.5456,2.545,2.545,2.5455,2.5436,2.5443,2.544,2.5432,2.5412,2.5411,2.541,2.5399,2.5397,2.5394,0,0,0,0,0,0,2.5457,2.546,2.5464,2.5451,2.5449,2.5449,2.5441,2.5446,2.5441,2.5442,2.5446,2.5445,2.5433,2.5431,2.5438,2.5417,2.5425,2.5423,2.5418,2.5416,2.5414,2.5414,2.5448,0,0,0,0,0,2.5453,2.5447,2.5449,2.5437,2.5436,2.5439,2.5435,2.5439,2.5436,2.5435,2.5434,2.5431,2.5424,2.542,2.5414,2.5398,2.5398,2.5392,2.5389,2.5388,2.5386,2.538,2.5377,2.5405,2.5405,2.5405,0,0,2.5442,2.5443,2.5439,2.5434,2.5433,2.5427,2.5438,2.543,2.5426,2.5433,2.5423,2.5422,2.5419,2.5406,2.54,2.5404,2.5379,2.5386,2.5385,2.5384,2.5378,2.5375,2.5373,2.5404,2.5404,2.5404,0,0,2.5421,2.5421,2.5412,2.5411,2.541,2.5412,2.541,2.541,2.541,2.54,2.5406,2.54,2.5389,2.5387,2.5384,2.5364,2.5369,2.5362,2.5351,2.5345,2.5342,2.534,2.5334,2.5332,2.536,2.536,2.536,0,2.5408,2.54,2.5406,2.5399,2.5397,2.5406,2.5396,2.5395,2.5391,2.5389,2.5394,2.5382,2.538,2.5367,2.5363,2.536,2.5358,2.5362,2.5342,2.5341,2.5339,2.5333,2.5331,2.5359,2.536,2.536,2.536,0,2.5385,2.5379,2.5372,2.5371,2.5368,2.5359,2.5364,2.536,2.5364,2.5365,2.5356,2.5354,2.5349,2.5346,2.5348,2.5334,2.5337,2.5342,2.5351,2.5335,2.533,2.5328,2.5358,2.5359,2.5359,2.5359,0,0,2.5353,2.5357,2.5354,2.5354,2.5354,2.535,2.5342,2.5338,2.5336,2.5333,2.5327,2.5318,2.5324,2.5321,2.5324,2.5318,2.5304,2.5324,2.5324,2.5321,2.5289,2.5286,2.5283,2.5307,2.5307,2.5306,2.529,0,2.5333,2.5322,2.5327,2.5315,2.5311,2.5319,2.5313,2.5312,2.5314,2.531,2.5311,2.5306,2.5313,2.5311,2.5306,2.5307,2.5298,2.5308,2.5302,2.5301,2.5303,2.528,2.5276,2.5261,2.5288,2.5288,2.5287,0,2.5308,2.5307,2.5294,2.5297,2.5296,2.529,2.5288,2.5284,2.5284,2.5285,2.5283,2.5288,2.5281,2.5289,2.528,2.5287,2.5284,2.5285,2.5284,2.5284,2.5294,2.528,2.5256,2.5254,2.5284,2.5284,2.5284,0,2.5287,2.5282,2.5275,2.5274,2.5277,2.5273,2.5274,2.5275,2.5273,2.5271,2.527,2.5266,2.5264,2.5261,2.5265,2.5271,2.5255,2.5264,2.5256,2.5256,2.5253,2.5253,2.5228,2.525,2.525,2.525,2.525,0,2.5264,2.5257,2.5266,2.5261,2.5253,2.526,2.5252,2.5253,2.5254,2.525,2.5257,2.5252,2.5257,2.5253,2.5256,2.5248,2.5247,2.5248,2.5249,2.5248,2.5248,2.5247,2.5248,2.525,2.525,2.525,2.525,0,2.524,2.5246,2.5239,2.5243,2.5244,2.5238,2.5241,2.5237,2.524,2.5235,2.5234,2.5238,2.5234,2.5237,2.5233,2.5235,2.5225,2.5227,2.5226,2.5226,2.5219,2.522,2.5193,2.5191,2.5214,2.5213,2.5213,0,2.5226,2.522,2.5225,2.5223,2.5224,2.5221,2.522,2.5227,2.5225,2.5226,2.5221,2.5218,2.5216,2.521,2.5212,2.5209,2.5211,2.5202,2.5211,2.521,2.5212,2.5213,2.5213,2.52,2.52,2.52,2.52,0,2.52,2.5203,2.5202,2.5202,2.5201,2.5201,2.5201,2.5199,2.5206,2.5204,2.5201,2.52,2.5196,2.5193,2.5192,2.5192,2.5197,2.5197,2.5196,2.5194,2.5195,2.5196,2.5222,2.5198,2.5198,2.5198,2.5198,2.5198,2.518,2.5177,2.518,2.5179,2.518,2.5181,2.5178,2.5182,2.518,2.5179,2.5182,2.5179,2.518,2.5178,2.5178,2.5175,2.5179,2.5176,2.5175,2.5175,2.5174,2.5195,2.5174,2.5174,2.5174,2.5175,2.5175,0,2.5156,2.5159,2.5158,2.5159,2.5158,2.5165,2.5166,2.5165,2.5162,2.5163,2.5162,2.5159,2.5157,2.5159,2.5158,2.5155,2.5157,2.5154,2.5155,2.5155,2.517,2.5173,2.5152,2.5152,2.5152,2.5153,2.5153,2.5153,2.5143,2.5138,2.5143,2.5139,2.5141,2.5139,2.514,2.514,2.5142,2.5139,2.5138,2.514,2.5142,2.5141,2.5139,2.514,2.5139,2.5135,2.5137,2.5151,2.5154,2.5156,2.5158,2.5135,2.5135,2.5122,2.5122,2.5122]}]]